Voltar ao catálogo

EUTE 115 WEST A(SATMEX 5

AtivoComunicaçõesGEO
NORAD 25558·PAYLOAD·🇪🇺 EU

Lançado Dec 6, 1998 de Guiana Space Centre

Loading…

TLE

AtualizadoSource: Space-Track

Época: Sep 14, 2026, 09:58 UTC

1 25558U 98070A   26257.41565778 -.00000043  00000-0  00000-0 0  9992
2 25558  10.5323  51.0635 0004839 108.2814 258.3234  0.98719586101348

Acompanhe EUTE 115 WEST A(SATMEX 5 em tempo real com AllMySat

Download on the App Store